| time (UTC) | temp F | wind direction | speed knots | gust knots | rain 1hr in | rain 24hr in | rain mn in | humidity % | barometer mb |
| 20260503013804 | 65 | 233 | 3.5 | 6.1 | 0.00 | 0.00 | 0.00 | 31 | 1011.4 |
| 20260503013304 | 66 | 232 | 5.2 | 7.8 | 0.00 | 0.00 | 0.00 | 31 | 1011.5 |
| 20260503012305 | 66 | 247 | 5.2 | 10.4 | 0.00 | 0.00 | 0.00 | 29 | 1011.6 |
| 20260503011303 | 66 | 244 | 6.1 | 10.4 | 0.00 | 0.00 | 0.00 | 29 | 1011.6 |
| 20260503005804 | 66 | 230 | 5.2 | 10.4 | 0.00 | 0.00 | 0.00 | 29 | 1011.7 |
| 20260503003303 | 67 | 3 | 0.0 | 0.0 | 0.00 | 0.00 | 0.00 | 27 | 1012.3 |
| 20260503002804 | 67 | 4 | 0.0 | 5.2 | 0.00 | 0.00 | 0.00 | 27 | 1012.4 |
| 20260503001805 | 67 | 242 | 5.2 | 5.2 | 0.00 | 0.00 | 0.00 | 27 | 1012.3 |
| 20260502235805 | 67 | 246 | 7.0 | 12.2 | 0.00 | 0.00 | 0.00 | 27 | 1012.6 |
| 20260502234804 | 67 | 268 | 0.9 | 6.1 | 0.00 | 0.00 | 0.00 | 26 | 1012.7 |
| 20260502233805 | 67 | 233 | 4.3 | 10.4 | 0.00 | 0.00 | 0.00 | 27 | 1012.8 |
| 20260502233304 | 66 | 247 | 2.6 | 8.7 | 0.00 | 0.00 | 0.00 | 26 | 1012.9 |
| 20260502232305 | 67 | 241 | 6.1 | 11.3 | 0.00 | 0.00 | 0.00 | 26 | 1013.1 |
| 20260502231304 | 67 | 268 | 9.6 | 14.8 | 0.00 | 0.00 | 0.00 | 26 | 1013.2 |
| 20260502230804 | 68 | 273 | 3.5 | 6.1 | 0.00 | 0.00 | 0.00 | 26 | 1013.3 |
| 20260502225305 | 67 | 293 | 5.2 | 8.7 | 0.00 | 0.00 | 0.00 | 26 | 1013.5 |
| 20260502224304 | 66 | 261 | 2.6 | 7.0 | 0.00 | 0.00 | 0.00 | 26 | 1013.7 |
| 20260502223805 | 66 | 253 | 5.2 | 13.0 | 0.00 | 0.00 | 0.00 | 28 | 1013.8 |
| 20260502221805 | 66 | 293 | 8.7 | 13.9 | 0.00 | 0.00 | 0.00 | 28 | 1014.0 |
| 20260502221304 | 65 | 286 | 5.2 | 10.4 | 0.00 | 0.00 | 0.00 | 27 | 1014.1 |
| 20260502220804 | 65 | 270 | 7.8 | 13.0 | 0.00 | 0.00 | 0.00 | 26 | 1014.2 |
| 20260502220304 | 66 | 283 | 9.6 | 12.2 | 0.00 | 0.00 | 0.00 | 28 | 1014.2 |
| 20260502215804 | 65 | 300 | 4.3 | 12.2 | 0.00 | 0.00 | 0.00 | 28 | 1014.2 |
| 20260502215305 | 65 | 280 | 6.1 | 13.0 | 0.00 | 0.00 | 0.00 | 27 | 1014.3 |
| 20260502214303 | 65 | 227 | 6.1 | 12.2 | 0.00 | 0.00 | 0.00 | 28 | 1014.5 |
| 20260502213804 | 65 | 236 | 4.3 | 10.4 | 0.00 | 0.00 | 0.00 | 29 | 1014.5 |
| 20260502212804 | 64 | 269 | 6.1 | 14.8 | 0.00 | 0.00 | 0.00 | 29 | 1014.8 |
| 20260502211805 | 65 | 285 | 4.3 | 10.4 | 0.00 | 0.00 | 0.00 | 30 | 1014.9 |
| 20260502211304 | 65 | 271 | 8.7 | 13.0 | 0.00 | 0.00 | 0.00 | 29 | 1014.9 |
| 20260502210804 | 65 | 264 | 2.6 | 8.7 | 0.00 | 0.00 | 0.00 | 30 | 1015.0 |
| 20260502205305 | 64 | 253 | 7.8 | 13.9 | 0.00 | 0.00 | 0.00 | 31 | 1015.1 |
| 20260502203804 | 63 | 333 | 4.3 | 10.4 | 0.00 | 0.00 | 0.00 | 30 | 1015.3 |
| 20260502203304 | 63 | 23 | 4.3 | 8.7 | 0.00 | 0.00 | 0.00 | 31 | 1015.4 |
| 20260502201304 | 63 | 331 | 7.0 | 10.4 | 0.00 | 0.00 | 0.00 | 31 | 1015.7 |
| 20260502200804 | 62 | 273 | 9.6 | 13.9 | 0.00 | 0.00 | 0.00 | 31 | 1015.8 |
| 20260502200304 | 63 | 233 | 6.1 | 14.8 | 0.00 | 0.00 | 0.00 | 34 | 1015.9 |
| 20260502195805 | 63 | 254 | 8.7 | 13.9 | 0.00 | 0.00 | 0.00 | 32 | 1016.1 |
| 20260502194804 | 62 | 273 | 6.1 | 12.2 | 0.00 | 0.00 | 0.00 | 32 | 1016.3 |
| 20260502193804 | 61 | 346 | 3.5 | 7.8 | 0.00 | 0.00 | 0.00 | 31 | 1016.4 |
| 20260502193303 | 61 | 263 | 7.0 | 12.2 | 0.00 | 0.00 | 0.00 | 33 | 1016.6 |
| 20260502192804 | 61 | 269 | 8.7 | 13.0 | 0.00 | 0.00 | 0.00 | 33 | 1016.6 |
| 20260502192305 | 62 | 293 | 10.4 | 13.9 | 0.00 | 0.00 | 0.00 | 33 | 1016.6 |
| 20260502191805 | 61 | 259 | 7.0 | 13.0 | 0.00 | 0.00 | 0.00 | 33 | 1016.6 |
| 20260502191303 | 61 | 273 | 10.4 | 14.8 | 0.00 | 0.00 | 0.00 | 33 | 1016.8 |
| 20260502190804 | 61 | 286 | 7.8 | 14.8 | 0.00 | 0.00 | 0.00 | 33 | 1016.7 |
| 20260502185804 | 61 | 4 | 4.3 | 10.4 | 0.00 | 0.00 | 0.00 | 31 | 1016.9 |
| 20260502182804 | 61 | 324 | 7.0 | 12.2 | 0.00 | 0.00 | 0.00 | 31 | 1017.1 |
| 20260502181804 | 61 | 342 | 3.5 | 10.4 | 0.00 | 0.00 | 0.00 | 32 | 1017.2 |
| 20260502180304 | 60 | 343 | 6.1 | 10.4 | 0.00 | 0.00 | 0.00 | 32 | 1017.3 |
| 20260502170304 | 58 | 299 | 1.7 | 7.0 | 0.00 | 0.00 | 0.00 | 39 | 1017.9 |
| 20260502164304 | 58 | 43 | 4.3 | 8.7 | 0.00 | 0.00 | 0.00 | 42 | 1018.0 |
| 20260502163804 | 57 | 28 | 2.6 | 7.8 | 0.00 | 0.00 | 0.00 | 43 | 1018.1 |
| 20260502163303 | 57 | 342 | 2.6 | 4.3 | 0.00 | 0.00 | 0.00 | 43 | 1018.1 |
| 20260502162804 | 57 | 350 | 2.6 | 5.2 | 0.00 | 0.00 | 0.00 | 44 | 1018.2 |
| 20260502161304 | 56 | 324 | 2.6 | 7.0 | 0.00 | 0.00 | 0.00 | 45 | 1018.1 |
| 20260502160304 | 56 | 358 | 3.5 | 7.8 | 0.00 | 0.00 | 0.00 | 47 | 1018.2 |
| 20260502150803 | 52 | 309 | 3.5 | 7.0 | 0.00 | 0.00 | 0.00 | 60 | 1018.3 |
| 20260502150303 | 51 | 323 | 3.5 | 7.0 | 0.00 | 0.00 | 0.00 | 61 | 1018.3 |
| 20260502122804 | 39 | 275 | 6.1 | 8.7 | 0.00 | 0.00 | 0.00 | 84 | 1017.9 |
| 20260502121804 | 39 | 278 | 6.1 | 7.0 | 0.00 | 0.00 | 0.00 | 86 | 1017.9 |
| 20260502115805 | 38 | 275 | 7.0 | 7.8 | 0.00 | 0.00 | 0.00 | 85 | 1017.7 |
| 20260502115306 | 38 | 274 | 7.0 | 7.8 | 0.00 | 0.00 | 0.00 | 85 | 1017.6 |
| 20260502114304 | 38 | 275 | 5.2 | 7.0 | 0.00 | 0.00 | 0.00 | 84 | 1017.5 |
| 20260502112804 | 39 | 278 | 6.1 | 7.0 | 0.00 | 0.00 | 0.00 | 84 | 1017.5 |
| 20260502111804 | 39 | 274 | 6.1 | 7.8 | 0.00 | 0.00 | 0.00 | 83 | 1017.6 |
| 20260502110803 | 39 | 273 | 5.2 | 6.1 | 0.00 | 0.00 | 0.00 | 82 | 1017.5 |
| 20260502104804 | 40 | 283 | 5.2 | 7.0 | 0.00 | 0.00 | 0.00 | 82 | 1017.4 |
| 20260502104304 | 41 | 284 | 5.2 | 7.0 | 0.00 | 0.00 | 0.00 | 82 | 1017.4 |
| 20260502103804 | 41 | 284 | 5.2 | 7.0 | 0.00 | 0.00 | 0.00 | 82 | 1017.3 |
| 20260502102804 | 41 | 283 | 5.2 | 7.0 | 0.00 | 0.00 | 0.00 | 82 | 1017.2 |
| 20260502101804 | 41 | 278 | 6.1 | 7.0 | 0.00 | 0.00 | 0.00 | 81 | 1017.1 |
| 20260502100304 | 42 | 282 | 7.0 | 7.8 | 0.00 | 0.00 | 0.00 | 81 | 1017.1 |
| 20260502090804 | 44 | 300 | 4.3 | 7.0 | 0.00 | 0.00 | 0.00 | 78 | 1016.6 |
| 20260502071303 | 45 | 279 | 7.0 | 8.7 | 0.00 | 0.00 | 0.00 | 78 | 1015.9 |
| 20260502070304 | 45 | 277 | 4.3 | 7.0 | 0.00 | 0.00 | 0.00 | 76 | 1015.9 |
| 20260502065804 | 45 | 274 | 5.2 | 6.1 | 0.00 | 0.00 | 0.00 | 75 | 1015.8 |
| 20260502064804 | 45 | 279 | 5.2 | 7.0 | 0.00 | 0.00 | 0.00 | 74 | 1015.8 |
| 20260502063804 | 47 | 284 | 4.3 | 7.0 | 0.00 | 0.00 | 0.00 | 72 | 1015.9 |
| 20260502062804 | 47 | 295 | 6.1 | 7.0 | 0.00 | 0.00 | 0.00 | 71 | 1015.7 |
| 20260502062306 | 47 | 289 | 5.2 | 8.7 | 0.00 | 0.00 | 0.00 | 70 | 1015.7 |
| 20260502061804 | 48 | 281 | 7.8 | 10.4 | 0.00 | 0.00 | 0.00 | 69 | 1015.7 |
| 20260502060304 | 50 | 287 | 2.6 | 6.1 | 0.00 | 0.00 | 0.00 | 66 | 1015.6 |
| 20260502055305 | 51 | 295 | 2.6 | 4.3 | 0.00 | 0.00 | 0.00 | 68 | 1015.5 |
| 20260502053303 | 52 | 6 | 4.3 | 5.2 | 0.00 | 0.00 | 0.00 | 66 | 1015.4 |
| 20260502052804 | 52 | 0 | 4.3 | 4.3 | 0.00 | 0.00 | 0.00 | 66 | 1015.3 |
| 20260502052306 | 52 | 4 | 4.3 | 5.2 | 0.00 | 0.00 | 0.00 | 66 | 1015.3 |
| 20260502051804 | 52 | 353 | 5.2 | 7.0 | 0.00 | 0.00 | 0.00 | 66 | 1015.4 |
| 20260502050803 | 52 | 340 | 6.1 | 8.7 | 0.00 | 0.00 | 0.00 | 64 | 1015.5 |
| 20260502045804 | 52 | 323 | 2.6 | 4.3 | 0.00 | 0.00 | 0.00 | 65 | 1015.5 |
| 20260502045306 | 53 | 331 | 4.3 | 5.2 | 0.00 | 0.00 | 0.00 | 64 | 1015.5 |
| 20260502044804 | 53 | 338 | 4.3 | 5.2 | 0.00 | 0.00 | 0.00 | 63 | 1015.5 |
| 20260502044304 | 53 | 336 | 2.6 | 2.6 | 0.00 | 0.00 | 0.00 | 63 | 1015.4 |
| 20260502042306 | 53 | 298 | 2.6 | 2.6 | 0.00 | 0.00 | 0.00 | 63 | 1015.4 |
| 20260502041804 | 54 | 302 | 1.7 | 2.6 | 0.00 | 0.00 | 0.00 | 63 | 1015.3 |
| 20260502041304 | 54 | 333 | 1.7 | 2.6 | 0.00 | 0.00 | 0.00 | 63 | 1015.4 |
| 20260502040804 | 53 | 327 | 1.7 | 2.6 | 0.00 | 0.00 | 0.00 | 63 | 1015.2 |
| 20260502040304 | 54 | 327 | 2.6 | 2.6 | 0.00 | 0.00 | 0.00 | 63 | 1015.3 |
| 20260502035805 | 53 | 338 | 3.5 | 5.2 | 0.00 | 0.00 | 0.00 | 64 | 1015.3 |
| 20260502035306 | 53 | 338 | 4.3 | 7.8 | 0.00 | 0.00 | 0.00 | 64 | 1015.3 |
| 20260502034803 | 54 | 331 | 2.6 | 5.2 | 0.00 | 0.00 | 0.00 | 65 | 1015.4 |
| 20260502034304 | 54 | 316 | 2.6 | 5.2 | 0.00 | 0.00 | 0.00 | 64 | 1015.3 |
| 20260502033304 | 54 | 356 | 5.2 | 7.8 | 0.00 | 0.00 | 0.00 | 62 | 1015.0 |
| 20260502032804 | 54 | 356 | 5.2 | 7.0 | 0.00 | 0.00 | 0.00 | 62 | 1014.8 |
| 20260502032306 | 54 | 0 | 6.1 | 8.7 | 0.00 | 0.00 | 0.00 | 61 | 1014.7 |
| 20260502031804 | 55 | 5 | 6.1 | 12.2 | 0.00 | 0.00 | 0.00 | 60 | 1014.6 |
| 20260502031304 | 55 | 6 | 7.8 | 11.3 | 0.00 | 0.00 | 0.00 | 60 | 1014.5 |
| 20260502030304 | 56 | 8 | 11.3 | 17.4 | 0.00 | 0.00 | 0.00 | 55 | 1014.3 |
| 20260502025804 | 57 | 15 | 10.4 | 13.0 | 0.00 | 0.00 | 0.00 | 55 | 1014.1 |
| 20260502024804 | 58 | 6 | 6.1 | 7.8 | 0.00 | 0.00 | 0.00 | 50 | 1013.8 |
| 20260502022803 | 59 | 11 | 6.1 | 8.7 | 0.00 | 0.00 | 0.00 | 48 | 1013.5 |
| 20260502022306 | 59 | 25 | 5.2 | 8.7 | 0.00 | 0.00 | 0.00 | 47 | 1013.5 |
| 20260502021804 | 59 | 24 | 5.2 | 7.8 | 0.00 | 0.00 | 0.00 | 47 | 1013.4 |
| 20260502015804 | 60 | 21 | 6.1 | 10.4 | 0.00 | 0.00 | 0.00 | 46 | 1013.0 |
| 20260502015305 | 60 | 33 | 5.2 | 10.4 | 0.00 | 0.00 | 0.00 | 45 | 1012.9 |
| 20260502014304 | 61 | 32 | 6.1 | 10.4 | 0.00 | 0.00 | 0.00 | 44 | 1013.0 |